Date String (YYYY-MM-DD hh:mm:ss) UTC,Instrument flags,Ambient pressure (hPa),Sample flow (lpm),Bypass flow (lpm),Sample temperature (°C),Ambient temperature (°C),ASC tube jacket temperature (°C),LED temperature (°C),Box temperature (°C),Sample RH (%),Span deviation,Mass concentration (μg/m³),Mass concentration (μg/m³),Mass concentration (μg/m³)
DateTimeUTC,F1_M11,P_M11,Q1_M11,Q2_M11,T1_M11,T2_M11,T3_M11,T4_M11,T5_M11,U1_M11,ZSPAN_M11,X0_M11,X2_M11,X1_M11
2023-02-28 13:00:00,,0810.7,5.01,0.00,21.7,20.2,00.0,30.7,23.3,09.2,0000.0,0001.51,0000.75,0000.47
2023-02-28 13:01:00,,0810.7,4.98,0.00,21.8,21.6,00.0,30.7,23.6,09.2,0000.0,0001.78,0000.76,0000.48
2023-02-28 13:02:00,,0810.6,5.01,0.00,22.0,22.6,00.0,30.7,23.9,09.2,0000.0,0001.86,0000.75,0000.47
2023-02-28 13:03:00,,0810.6,4.99,0.00,22.0,22.3,00.0,30.8,23.9,09.2,0000.0,0001.90,0000.76,0000.48
2023-02-28 13:04:00,,0810.6,5.02,0.00,22.0,21.7,00.0,30.8,23.8,09.2,0000.0,0001.99,0000.79,0000.49
2023-02-28 13:05:00,,0810.6,5.01,0.00,22.0,21.2,00.0,30.8,23.7,09.2,0000.0,0002.07,0000.84,0000.49
2023-02-28 13:06:00,,0810.6,5.00,0.00,22.0,20.9,00.0,30.8,23.5,09.2,0000.0,0002.04,0000.84,0000.50
2023-02-28 13:07:00,,0810.5,5.00,0.00,21.9,20.6,00.0,30.8,23.4,09.3,0000.0,0002.07,0000.84,0000.50
2023-02-28 13:08:00,,0810.6,5.01,0.00,21.9,20.4,00.0,30.8,23.4,09.4,0000.0,0002.13,0000.85,0000.51
2023-02-28 13:09:00,,0810.6,4.99,0.00,21.9,20.3,00.0,30.8,23.4,09.5,0000.0,0002.20,0000.88,0000.51
2023-02-28 13:10:00,,0810.6,5.01,0.00,21.9,20.2,00.0,30.8,23.5,09.6,0000.0,0002.19,0000.88,0000.50
2023-02-28 13:11:00,,0810.6,5.01,0.00,21.8,20.2,00.0,30.7,23.5,09.6,0000.0,0002.09,0000.86,0000.49
2023-02-28 13:12:00,,0810.6,4.99,0.00,21.8,20.1,00.0,30.7,23.5,09.6,0000.0,0001.84,0000.83,0000.49
2023-02-28 13:13:00,,0810.6,4.99,0.00,21.8,20.1,00.0,30.7,23.5,09.6,0000.0,0001.67,0000.85,0000.49
2023-02-28 13:14:00,,0810.6,5.00,0.00,21.8,20.1,00.0,30.7,23.5,09.6,0000.0,0001.68,0000.86,0000.49
2023-02-28 13:15:00,,0810.6,5.01,0.00,21.8,20.3,00.0,30.7,23.5,09.6,0000.0,0001.67,0000.87,0000.48
2023-02-28 13:16:00,,0810.6,5.01,0.00,21.9,21.4,00.0,30.7,23.7,09.7,0000.0,0001.69,0000.88,0000.47
2023-02-28 13:17:00,,0810.6,5.03,0.00,22.0,22.6,00.0,30.7,24.0,09.6,0000.0,0001.61,0000.86,0000.46
2023-02-28 13:18:00,,0810.5,5.03,0.00,22.2,23.0,00.0,30.7,24.2,09.4,0000.0,0001.53,0000.83,0000.46
2023-02-28 13:19:00,,0810.5,4.98,0.00,22.2,22.4,00.0,30.8,24.1,09.4,0000.0,0001.41,0000.80,0000.45
2023-02-28 13:20:00,,0810.5,4.99,0.00,22.2,21.9,00.0,30.8,24.0,09.3,0000.0,0001.37,0000.78,0000.46
2023-02-28 13:21:00,,0810.5,5.01,0.00,22.2,21.4,00.0,30.8,23.8,09.4,0000.0,0001.32,0000.75,0000.46
2023-02-28 13:22:00,,0810.4,5.00,0.00,22.1,21.1,00.0,30.8,23.8,09.4,0000.0,0001.37,0000.79,0000.47
2023-02-28 13:23:00,,0810.4,4.99,0.00,22.1,20.9,00.0,30.8,23.7,09.4,0000.0,0001.46,0000.83,0000.47
2023-02-28 13:24:00,,0810.4,4.99,0.00,22.1,20.7,00.0,30.8,23.7,09.4,0000.0,0001.50,0000.84,0000.47
2023-02-28 13:25:00,,0810.4,4.99,0.00,22.0,20.6,00.0,30.8,23.7,09.6,0000.0,0001.53,0000.85,0000.47
2023-02-28 13:26:00,,0810.4,5.00,0.00,22.0,20.4,00.0,30.8,23.6,09.6,0000.0,0001.46,0000.81,0000.46
2023-02-28 13:27:00,,0810.4,5.00,0.00,22.0,20.3,00.0,30.8,23.6,09.7,0000.0,0001.42,0000.80,0000.47
2023-02-28 13:28:00,,0810.3,5.02,0.00,21.9,20.1,00.0,30.8,23.4,09.9,0000.0,0001.50,0000.83,0000.48
2023-02-28 13:29:00,,0810.4,5.00,0.00,21.9,19.9,00.0,30.7,23.3,09.7,0000.0,0001.62,0000.88,0000.48
2023-02-28 13:30:00,,0810.4,5.01,0.00,21.8,19.8,00.0,30.7,23.2,09.7,0000.0,0001.63,0000.88,0000.48
2023-02-28 13:31:00,,0810.3,5.01,0.00,21.8,20.4,00.0,30.7,23.3,09.9,0000.0,0001.67,0000.88,0000.47
2023-02-28 13:32:00,,0810.4,5.00,0.00,21.9,21.8,00.0,30.7,23.7,09.9,0000.0,0001.74,0000.90,0000.47
2023-02-28 13:33:00,,0810.3,4.96,0.00,22.0,22.8,00.0,30.7,24.1,09.9,0000.0,0001.67,0000.85,0000.46
2023-02-28 13:34:00,,0810.4,4.99,0.00,22.1,22.6,00.0,30.8,24.1,09.8,0000.0,0001.82,0000.84,0000.46
2023-02-28 13:35:00,,0810.4,5.03,0.00,22.1,22.0,00.0,30.8,24.0,09.9,0000.0,0001.84,0000.84,0000.46
2023-02-28 13:36:00,,0810.3,4.99,0.00,22.1,21.5,00.0,30.8,23.8,09.9,0000.0,0001.82,0000.83,0000.46
2023-02-28 13:37:00,,0810.3,5.00,0.00,22.1,21.1,00.0,30.8,23.7,09.8,0000.0,0001.92,0000.86,0000.46
2023-02-28 13:38:00,,0810.3,5.01,0.00,22.0,20.7,00.0,30.8,23.5,09.8,0000.0,0001.86,0000.83,0000.46
2023-02-28 13:39:00,,0810.3,4.99,0.00,21.9,20.4,00.0,30.8,23.4,09.9,0000.0,0001.76,0000.78,0000.45
2023-02-28 13:40:00,,0810.4,5.01,0.00,21.9,20.2,00.0,30.8,23.4,10.0,0000.0,0001.68,0000.75,0000.45
2023-02-28 13:41:00,,0810.4,5.00,0.00,21.9,20.1,00.0,30.8,23.4,10.1,0000.0,0001.69,0000.76,0000.45
2023-02-28 13:42:00,,0810.4,5.00,0.00,21.8,20.0,00.0,30.7,23.4,10.0,0000.0,0001.60,0000.75,0000.46
2023-02-28 13:43:00,,0810.4,5.01,0.00,21.8,20.0,00.0,30.7,23.4,10.0,0000.0,0001.52,0000.74,0000.47
2023-02-28 13:44:00,,0810.5,5.00,0.00,21.8,20.0,00.0,30.7,23.4,10.1,0000.0,0001.61,0000.78,0000.48
2023-02-28 13:45:00,,0810.5,5.00,0.00,21.8,19.9,00.0,30.7,23.4,10.2,0000.0,0001.37,0000.75,0000.48
2023-02-28 13:46:00,,0810.5,5.01,0.00,21.8,20.2,00.0,30.7,23.4,10.2,0000.0,0001.32,0000.75,0000.49
2023-02-28 13:47:00,,0810.5,4.98,0.00,21.9,21.4,00.0,30.7,23.7,10.2,0000.0,0001.35,0000.78,0000.50
2023-02-28 13:48:00,,0810.5,4.99,0.00,22.0,22.7,00.0,30.7,24.0,10.2,0000.0,0001.39,0000.79,0000.50
2023-02-28 13:49:00,,0810.5,5.03,0.00,22.2,23.1,00.0,30.7,24.2,10.1,0000.0,0001.49,0000.82,0000.51
2023-02-28 13:50:00,,0810.5,5.00,0.00,22.2,22.5,00.0,30.8,24.1,10.1,0000.0,0001.56,0000.86,0000.51
2023-02-28 13:51:00,,0810.6,4.98,0.00,22.2,22.0,00.0,30.8,24.1,10.1,0000.0,0001.60,0000.87,0000.51
2023-02-28 13:52:00,,0810.6,4.99,0.00,22.2,21.6,00.0,30.8,24.0,10.1,0000.0,0001.74,0000.92,0000.52
2023-02-28 13:53:00,,0810.6,5.00,0.00,22.2,21.2,00.0,30.8,23.9,10.2,0000.0,0001.93,0001.00,0000.52
2023-02-28 13:54:00,,0810.5,5.01,0.00,22.2,21.0,00.0,30.9,23.9,10.1,0000.0,0002.08,0001.02,0000.53
2023-02-28 13:55:00,,0810.5,5.00,0.00,22.2,20.8,00.0,30.9,23.9,10.2,0000.0,0002.04,0001.01,0000.52
2023-02-28 13:56:00,,0810.4,4.99,0.00,22.1,20.6,00.0,30.9,23.8,10.2,0000.0,0001.99,0001.00,0000.52
2023-02-28 13:57:00,,0810.5,5.00,0.00,22.1,20.5,00.0,30.8,23.7,10.3,0000.0,0002.04,0001.01,0000.51
2023-02-28 13:58:00,,0810.5,5.00,0.00,22.0,20.3,00.0,30.8,23.6,10.4,0000.0,0002.03,0000.99,0000.49
2023-02-28 13:59:00,,0810.5,5.00,0.00,22.0,20.2,00.0,30.8,23.4,10.4,0000.0,0001.92,0000.95,0000.49
